Location: Brantley
(31.5822°N, 86.2569°W)
Time: 01:57:23
(UTC+00:00)

Altair - Visible Passes

Search period start: 07 February 2026 00:00
Search period end: 17 February 2026 00:00
Orbit: 1502 x 1682 km, 47.2° (Epoch: 6 February)

Date Brightness Start Highest point End Pass type
(mag) Time Alt. Az. Time Alt. Az. Time Alt. Az.
7 Feb 8.3 11:22:26 10° SSW 11:31:14 52° SE 11:40:18 10° ENE visible
8 Feb 8.3 10:57:26 10° SSW 11:06:04 47° SE 11:14:57 10° ENE visible
9 Feb 8.4 10:32:28 10° SSW 10:40:55 43° SE 10:49:34 10° ENE visible
10 Feb 8.5 10:07:33 10° SSW 10:15:47 38° SE 10:24:10 10° ENE visible
11 Feb 8.6 09:44:17 16° S 09:50:38 34° SE 09:58:45 10° ENE visible
11 Feb 7.5 11:45:36 10° WSW 11:54:48 71° NW 12:04:19 10° NE visible
12 Feb 8.7 09:21:44 23° SSE 09:25:31 31° SE 09:33:17 10° ENE visible
12 Feb 7.4 11:20:20 10° WSW 11:29:32 76° NW 11:39:03 10° NE visible
13 Feb 8.7 08:58:55 26° SE 09:00:23 27° SE 09:07:47 10° ENE visible
13 Feb 7.4 10:57:01 18° SW 11:04:17 82° NW 11:13:48 10° NE visible
14 Feb 8.9 08:35:54 24° ESE 08:35:54 24° ESE 08:42:13 10° ENE visible
14 Feb 7.3 10:33:59 31° SW 10:39:04 88° NW 10:48:32 10° NE visible
15 Feb 9.2 08:12:43 19° ESE 08:12:43 19° ESE 08:16:37 10° E visible
15 Feb 7.3 10:10:46 49° SW 10:13:51 86° SE 10:23:16 10° NE visible
16 Feb 9.5 07:49:23 13° E 07:49:23 13° E 07:50:54 10° E visible
16 Feb 7.3 09:47:26 69° SSW 09:48:38 80° SE 09:58:00 10° NE visible
16 Feb 8.0 11:45:29 10° W 11:54:01 41° NNW 12:02:52 10° NE visible
